DECAYED

H-2A DEB, 38346 (Decayed)

Orbit data source: Space-Track

H-2A DEB, 38346 was space debris in LEO originally from a launch on Thu, 17 May 2012 UTC launched from the Tanegashima Space Center (TNSTA). Debris objects in space refer to the collection of defunct objects orbiting the Earth. Examples of debris include non-operational satellites, rocket bodies, and fragments generated from explosions, collisions, or faulty payload assembly.

Not visible in the next 10 days
Identifier
38346, 2012-025G
Orbit
Decayed
Country
Flag of JPJP / JPN
Related business
Manufacturer
Kawasaki
Mission
Decayed spacecraft
Bus & Motor
Unknown
Mass
~200 kg wet, ~200 kg dry
Launch date (UTC)
2012-05-17 (14 years ago)
Launch vehicle
Unknown
Launch site
Tanegashima Space Center (TNSTA)
Object type
Payload
Rocket body
Debris
Shape & HBR
Half Cyl, 2.8 m
Radar Cross Section
13.425 m², Large (>1 m²)

Expand to show TLE details & history
Last TLE update: 10 months ago

TLE from 10 months ago
0 H-2A DEB
1 38346U 12025G   25309.82379689  .09664458  29801-5  22422-2 0  9996
2 38346  98.2270 141.8265 0012052 318.0459  41.9908 16.29691107730105
Epoch: 2025-11-05T19:46Z
TLE epoch observation values (Epoch: 2025-11-05T19:46:16.051Z)
Latitude
-0.00002°
Longitude
159.96869°
Altitude
190.698 km
Speed
7.795 km/s
True Right ascension
09h 27m 18s
True Declination
0° 00' 00"
Sunlit
Object was in daylight at epoch
Visualization orbit readout
Latitude
Unknown
Longitude
Unknown
Altitude
Unknown
Speed
Unknown
Apparent Right ascension
Unknown
Apparent Declination
Unknown
Sunlit
N/A
Visualization observer readout
Local Sidereal Time
13:49:14
Azimuth
Unknown
Elevation
Unknown
Doppler factor
Unknown
Orbital elements
Apogee altitude
198.146 km
Perigee altitude
182.314 km
Semi-major axis
6,568.367 km
Eccentricity
0.00121
Inclination
98.227°
RAAN
141.8265°
Arg. of periapsis
318.0459°
True anomaly
42.0833°
Mean anomaly
41.9908°
Eccentric anomaly
42.03704°
Mean motion
4.07715 °/min
Orbital period
88.3 mins
BSTAR
0.0022422
Loading maneuver chart data...
Computing Atmospheric mass density...

Documentation

Showing up to 5 results
|